Home   Weather   Luckenwalde   Past weeks

Flag for Germany Past Weather in Luckenwalde, Brandenburg, Germany — Yesterday and Last 2 Weeks

43 °F

Partly cloudy.

Feels Like: 41 °F
Forecast: 39 / 47 °F
Wind: 3 mph from South

Location: Holzdorf

Current Time: Oct 22, 2016 at 12:07:03 AM

Latest Report: Oct 21, 2016 at 11:20 PM

Visibility: N/A

Pressure: 29.95 "Hg

Humidity: 93%

Dew Point: 41 °F

Location of LuckenwaldeLocation

Past Weather in Luckenwalde — Graph


Luckenwalde Temperature Yesterday

Maximum temperature yesterday: 48 °F (at 3:20 PM)
Minimum temperature yesterday: 43 °F (at 2:20 AM)
Average temperature yesterday: 44 °F

High & Low Weather Summary for the Past Weeks

High61 °F (Oct 16, 1:20 PM)100% (Oct 6, 10:20 PM)30.27 "Hg (Oct 6, 10:20 PM)
Low36 °F (Oct 10, 10:20 PM)58% (Oct 19, 4:20 PM)29.83 "Hg (Oct 15, 1:20 AM)
Average47 °F90%30.09 "Hg
* Reported Oct 6 10:20 PM — Oct 21 10:20 PM, Luckenwalde, Weather by CustomWeather, © 2016

Note: Actual official high and low records may vary slightly from our data, if they occured in-between our weather recording intervals... More about our weather records


Luckenwalde Weather History for the Previous 24 Hours

Scroll right to see more
Time TempWeatherWind HumidityBarometerVisibility
10:20 PM
Fri, Oct 21
43 °FPartly cloudy.5 mph93%29.95 "HgN/A
9:20 PM43 °FPassing clouds.3 mph93%29.95 "HgN/A
8:20 PM43 °FScattered showers. Partly cloudy.5 mph93%29.95 "HgN/A
7:20 PM45 °FScattered showers. Partly cloudy.5 mph93%29.92 "HgN/A
6:20 PM45 °FPassing clouds.5 mph93%29.92 "HgN/A
5:20 PM46 °FPartly sunny.5 mph87%29.92 "HgN/A
4:47 PM46 °FSprinkles. Broken clouds.3 mph87%29.92 "HgN/A
4:20 PM46 °FPartly sunny.6 mph82%29.92 "HgN/A
3:20 PM48 °FPartly sunny.6 mph82%29.92 "HgN/A
2:20 PM46 °FBroken clouds.5 mph87%29.89 "HgN/A
1:20 PM46 °FBroken clouds.5 mph87%29.92 "Hg6 mi
12:20 PM45 °FDrizzle. Partly sunny.7 mph93%29.89 "Hg5 mi
12:00 PM45 °FDrizzle. Partly sunny.6 mph93%29.89 "Hg6 mi
11:20 AM45 °FDrizzle. Partly sunny.6 mph93%29.89 "Hg6 mi
10:20 AM45 °FDrizzle. Partly sunny.7 mph93%29.89 "Hg4 mi
9:20 AM45 °FBroken clouds.7 mph93%29.89 "Hg5 mi
8:20 AM43 °FDrizzle. Partly sunny.6 mph93%29.86 "Hg4 mi
7:20 AM43 °FPassing clouds.7 mph93%29.86 "Hg5 mi
6:20 AM43 °FPassing clouds.3 mph93%29.86 "Hg5 mi
5:20 AM43 °FPassing clouds.5 mph93%29.86 "Hg6 mi
4:20 AM43 °FPassing clouds.5 mph100%29.86 "HgN/A
3:20 AM43 °FPartly cloudy.6 mph100%29.86 "HgN/A
2:20 AM43 °FPartly cloudy.5 mph100%29.89 "HgN/A
1:20 AM45 °FPassing clouds.6 mph93%29.89 "HgN/A
12:20 AM45 °FPartly cloudy.7 mph93%29.89 "HgN/A
Weather by CustomWeather, © 2016

See weather overviewHow to use our weather pages